星链-31906 (STARLINK-31906 )

导读

STARLINK-31906是美国太空探索技术公司(SpaceX)旗下星链(Starlink)卫星互联网星座的一员,于2024年5月23日发射升空。星链项目旨在通过在低地球轨道部署大量小型卫星,为全球尤其是基础设施匮乏地区提供高速、低延迟的宽带互联网服务,支持流媒体、视频通话与在线网络活动。

Basic Information
目录编号:
59842
目录名称:
STARLINK-31906
国际标识:
2024-097H
轨道中心:
EARTH
卫星名称:
星链-31906
卫星全名:
星链-31906 (STARLINK-31906 )
卫星状态:
在轨 (已飞行834 天)
发射日期:
2024-05-23 UTC
国别 :
美国 (US)
星等 :
--
Orbit Information
数据来源 国际轨道数据
星历时间: 2026-09-04T13:57:41+0800
6小时前
查看轨道信息
半长轴: 6861.479km
偏心率: 0.0002422
轨道倾角: 43.007°
近地点辐角 253.683°
升交点赤经 346.075°
平近点角 106.375°
近地点: 481.68km
远地点: 485.004km
周期: 94.273分钟
每日圈数: 15.274825
Detailed Information
固有亮度:
5
最大亮度:
1.5
卫星平台:
Starlink v2.0 mini
覆盖范围:
全球
运营商:
太空探索技术公司
运营商所在国:
美国
制造商(研发单位):
太空探索技术公司
制造商所在国:
美国
使用方式:
暂无
Satellite Introduction
星链(Starlink)计划是由太空探索技术公司(SpaceX)提出的一个巨型低轨卫星互联网星座项目,计划在2019年至2024年间在太空搭建由约1.2万颗卫星组成的“星链”网络,其中1584颗将部署在地球上空550千米处的近地轨道,并从2020年开始工作。该卫星仍在工作。
2D Orbit Map
3D Orbit Map
Orbit Altitude Analysis Chart
Orbit Inclination Analysis Chart
Orbit Comprehensive Analysis Chart
View Comprehensive Chart
Conjunction Data List
Event ID Objects TCA Miss Dist (km) Collision Risk Probability Collision Risk Index (CRI) Action
CDM_260906-135305-642405-984221
2026-09-06T
13:53:46+0000
0.061 km
近距离
1.316357E-3 极高风险 0.97
CDM_260904-193304-691205-984222
KSM1-A (46912)
2026-09-04T
19:33:35+0000
0.360 km
远距离
2.120655E-4 高风险 0.82
CDM_260905-164205-642405-984221
2026-09-05T
16:42:38+0000
0.581 km
远距离
9.430475E-5 中风险 0.74
CDM_260906-220205-949105-984221
2026-09-06T
22:02:31+0000
0.695 km
远距离
5.00321E-5 中风险 0.69
CDM_260904-210704-691205-984222
KSM1-A (46912)
2026-09-04T
21:07:44+0000
0.772 km
远距离
2.788445E-5 中风险 0.64
CDM_260905-181605-642405-984221
2026-09-05T
18:16:47+0000
0.993 km
远距离
1.749429E-5 中风险 0.6
CDM_260906-152705-642405-984221
2026-09-06T
15:27:55+0000
1.427 km
极远距离
5.049168E-6 低风险 0.49
CDM_260904-175904-691205-984222
KSM1-A (46912)
2026-09-04T
17:59:25+0000
1.330 km
极远距离
4.414881E-6 低风险 0.48
CDM_260906-121905-642405-984221
2026-09-06T
12:19:36+0000
1.505 km
极远距离
4.254355E-6 低风险 0.48
CDM_260905-150805-642405-984221
2026-09-05T
15:08:28+0000
1.563 km
极远距离
3.778445E-6 低风险 0.47